Terminal Aerodrome Forecast
Issued by NWS

Home | Current Version | Previous Version | Text Only | Print | Product List | Glossary On
Versions: 1 2 3 4 5 6 7 8 9 10 11 12 13
859
FTUS42 KTBW 210811 AAA
TAFRSW
TAF AMD
KRSW 210811Z 2108/2206 16004KT 3SM BR SCT010 SCT250
      TEMPO 2108/2112 1SM BR BKN010
     FM211400 16005KT P6SM FEW010 SCT250
     FM211600 18010KT P6SM FEW020 SCT250
     FM211800 20013G19KT P6SM FEW030 SCT250
     FM220000 20012KT P6SM BKN250=

USA.gov is the U.S. government's official web portal to all federal, state and local government web resources and services.